QPF
0.26 0.29 0.26 0.19 0.16 0.14 0.09 0.08 0.07 0.07 0.08 0.07 0.08 0.11 0.14 0.13 0.14 0.12 0.09 0.09 0.08 0.07 0.08 0.09 0.09 0.08 0.07 0.07 0.06 0.06 0.05 0.05 0.04 0.04 0.03 0.03 0.03 0.03 0.03 0.03 0.03 0.02 0.02
0.23 0.31 0.28 0.19 0.15 0.16 0.12 0.12 0.08 0.07 0.07 0.09 0.11 0.12 0.12 0.10 0.09 0.08 0.07 0.05 0.05 0.05 0.07 0.08 0.09 0.10 0.08 0.07 0.07 0.07 0.07 0.07 0.06 0.05 0.03 0.03 0.03 0.04 0.04 0.03 0.03 0.03 0.03
0.20 0.22 0.22 0.17 0.14 0.14 0.12 0.13 0.12 0.09 0.07 0.08 0.09 0.08 0.07 0.05 0.04 0.04 0.05 0.04 0.04 0.06 0.06 0.06 0.06 0.08 0.09 0.09 0.08 0.08 0.07 0.08 0.08 0.09 0.07 0.05 0.04 0.04 0.04 0.04 0.04 0.04 0.04
0.14 0.16 0.14 0.14 0.14 0.13 0.13 0.14 0.15 0.14 0.11 0.09 0.08 0.06 0.05 0.03 0.04 0.04 0.05 0.04 0.04 0.05 0.05 0.05 0.06 0.07 0.08 0.10 0.10 0.08 0.08 0.09 0.09 0.09 0.07 0.06 0.05 0.04 0.04 0.04 0.05 0.05 0.04
0.11 0.11 0.10 0.12 0.15 0.15 0.14 0.15 0.14 0.13 0.11 0.08 0.06 0.05 0.04 0.04 0.04 0.04 0.06 0.05 0.04 0.03 0.04 0.04 0.04 0.04 0.07 0.08 0.09 0.12 0.14 0.13 0.10 0.09 0.08 0.06 0.05 0.05 0.05 0.05 0.05 0.06 0.05
0.12 0.12 0.11 0.14 0.17 0.16 0.15 0.15 0.15 0.12 0.09 0.09 0.08 0.06 0.05 0.05 0.04 0.03 0.03 0.03 0.03 0.04 0.03 0.03 0.03 0.03 0.05 0.07 0.08 0.09 0.11 0.11 0.10 0.12 0.11 0.08 0.07 0.06 0.05 0.05 0.05 0.05 0.06
0.13 0.13 0.13 0.14 0.13 0.14 0.14 0.13 0.11 0.10 0.08 0.08 0.07 0.07 0.06 0.06 0.05 0.04 0.03 0.03 0.03 0.03 0.04 0.03 0.03 0.03 0.04 0.05 0.06 0.06 0.07 0.09 0.09 0.11 0.12 0.08 0.07 0.06 0.06 0.06 0.06 0.07 0.07
0.09 0.12 0.15 0.13 0.09 0.09 0.08 0.08 0.07 0.07 0.07 0.08 0.07 0.07 0.07 0.08 0.06 0.05 0.03 0.02 0.03 0.03 0.03 0.03 0.04 0.03 0.04 0.04 0.04 0.06 0.07 0.08 0.09 0.12 0.10 0.08 0.08 0.08 0.08 0.07 0.07 0.07 0.07
0.05 0.07 0.09 0.10 0.08 0.07 0.07 0.06 0.05 0.05 0.05 0.05 0.05 0.05 0.05 0.05 0.05 0.05 0.05 0.04 0.03 0.03 0.02 0.03 0.03 0.04 0.04 0.04 0.03 0.03 0.04 0.05 0.07 0.11 0.13 0.12 0.10 0.09 0.10 0.10 0.10 0.09 0.09
0.04 0.04 0.05 0.07 0.08 0.07 0.07 0.06 0.05 0.04 0.04 0.03 0.04 0.04 0.03 0.04 0.04 0.04 0.03 0.04 0.04 0.04 0.04 0.03 0.03 0.03 0.03 0.03 0.03 0.03 0.02 0.03 0.05 0.05 0.07 0.10 0.11 0.12 0.11 0.10 0.09 0.09 0.09
0.03 0.04 0.03 0.03 0.04 0.05 0.05 0.05 0.04 0.03 0.03 0.02 0.03 0.03 0.04 0.04 0.03 0.03 0.02 0.02 0.03 0.03 0.03 0.03 0.03 0.02 0.02 0.02 0.02 0.03 0.02 0.02 0.03 0.04 0.04 0.05 0.08 0.11 0.11 0.10 0.10 0.09 0.09
0.03 0.06 0.06 0.05 0.04 0.04 0.04 0.03 0.03 0.02 0.02 0.02 0.02 0.02 0.02 0.02 0.03 0.04 0.02 0.02 0.02 0.01 0.01 0.02 0.02 0.02 0.02 0.02 0.02 0.03 0.03 0.02 0.02 0.04 0.04 0.04 0.05 0.07 0.11 0.13 0.14 0.15 0.16
0.03 0.08 0.13 0.12 0.08 0.05 0.04 0.03 0.02 0.01 0.01 0.01 0.01 0.01 0.01 0.02 0.02 0.03 0.02 0.02 0.02 0.01 0.01 0.01 0.01 0.02 0.02 0.02 0.02 0.02 0.03 0.02 0.03 0.04 0.05 0.05 0.05 0.06 0.09 0.14 0.17 0.17 0.16
0.02 0.04 0.05 0.07 0.08 0.07 0.04 0.03 0.01 0.00 0.00 0.00 0.00 0.00 0.01 0.01 0.02 0.02 0.01 0.02 0.02 0.01 0.01 0.01 0.01 0.01 0.01 0.01 0.01 0.02 0.01 0.02 0.02 0.02 0.03 0.04 0.05 0.06 0.08 0.09 0.11 0.12 0.13
0.03 0.03 0.04 0.04 0.04 0.03 0.03 0.02 0.01 0.00 0.01 0.00 0.00 0.00 0.00 0.01 0.01 0.02 0.02 0.02 0.02 0.01 0.01 0.01 0.01 0.01 0.01 0.01 0.02 0.01 0.01 0.02 0.02 0.02 0.02 0.03 0.04 0.05 0.06 0.07 0.08 0.09 0.11
0.03 0.02 0.02 0.02 0.02 0.01 0.01 0.01 0.01 0.01 0.01 0.01 0.00 0.00 0.01 0.01 0.01 0.01 0.02 0.02 0.02 0.03 0.02 0.01 0.01 0.01 0.01 0.01 0.02 0.01 0.02 0.02 0.02 0.02 0.02 0.02 0.03 0.03 0.04 0.05 0.07 0.08 0.10
0.02 0.01 0.01 0.01 0.01 0.01 0.01 0.01 0.01 0.00 0.00 0.00 0.01 0.01 0.01 0.01 0.01 0.01 0.01 0.02 0.03 0.04 0.02 0.02 0.01 0.01 0.01 0.01 0.01 0.02 0.02 0.02 0.02 0.02 0.02 0.02 0.03 0.03 0.03 0.04 0.05 0.07 0.08
0.01 0.01 0.00 0.01 0.01 0.01 0.01 0.01 0.01 0.00 0.01 0.01 0.01 0.01 0.01 0.01 0.01 0.01 0.01 0.02 0.03 0.03 0.03 0.02 0.02 0.02 0.02 0.02 0.02 0.02 0.02 0.02 0.02 0.03 0.02 0.02 0.02 0.02 0.03 0.04 0.05 0.05 0.06
0.01 0.01 0.01 0.01 0.01 0.01 0.01 0.01 0.00 0.00 0.00 0.00 0.01 0.02 0.02 0.01 0.02 0.01 0.01 0.02 0.03 0.03 0.02 0.03 0.03 0.02 0.02 0.02 0.02 0.02 0.02 0.02 0.02 0.03 0.03 0.03 0.03 0.02 0.02 0.03 0.05 0.06 0.06
0.01 0.02 0.01 0.01 0.01 0.01 0.01 0.00 0.00 0.01 0.01 0.01 0.01 0.01 0.01 0.01 0.01 0.01 0.01 0.02 0.03 0.02 0.02 0.02 0.03 0.03 0.03 0.03 0.02 0.02 0.03 0.02 0.02 0.02 0.02 0.02 0.02 0.02 0.02 0.02 0.03 0.04 0.04
0.01 0.02 0.01 0.01 0.01 0.01 0.01 0.01 0.01 0.01 0.02 0.01 0.01 0.01 0.01 0.01 0.01 0.01 0.01 0.02 0.02 0.02 0.03 0.02 0.03 0.03 0.03 0.03 0.03 0.03 0.03 0.02 0.02 0.02 0.02 0.01 0.01 0.01 0.01 0.01 0.01 0.02 0.02
0.01 0.02 0.01 0.01 0.01 0.01 0.01 0.01 0.01 0.01 0.02 0.03 0.01 0.01 0.01 0.01 0.01 0.01 0.01 0.01 0.01 0.02 0.03 0.04 0.04 0.04 0.04 0.03 0.02 0.02 0.02 0.02 0.01 0.01 0.01 0.01 0.01 0.01 0.00 0.00 0.01 0.01 0.01
0.02 0.03 0.03 0.02 0.01 0.01 0.01 0.01 0.01 0.01 0.02 0.01 0.01 0.01 0.00 0.00 0.01 0.01 0.01 0.01 0.01 0.02 0.03 0.04 0.04 0.04 0.03 0.03 0.02 0.02 0.02 0.01 0.01 0.01 0.01 0.00 0.00 0.00 0.00 0.00 0.00 0.00 0.00
0.03 0.03 0.03 0.03 0.01 0.01 0.00 0.01 0.01 0.01 0.01 0.01 0.01 0.00 0.00 0.00 0.00 0.00 0.01 0.01 0.01 0.01 0.02 0.01 0.02 0.02 0.01 0.01 0.01 0.01 0.02 0.02 0.01 0.01 0.01 0.00 0.00 0.00 0.00 0.00 0.00 0.00 0.00
0.02 0.03 0.03 0.02 0.01 0.01 0.01 0.01 0.02 0.02 0.02 0.03 0.02 0.01 0.01 0.00 0.00 0.00 0.01 0.01 0.01 0.01 0.01 0.02 0.02 0.01 0.01 0.01 0.02 0.02 0.02 0.01 0.02 0.01 0.01 0.00 0.00 0.00 0.00 0.00 0.00 0.00 0.00
0.01 0.02 0.03 0.02 0.01 0.01 0.01 0.01 0.04 0.03 0.03 0.04 0.03 0.02 0.01 0.01 0.00 0.01 0.01 0.01 0.01 0.01 0.01 0.02 0.02 0.02 0.02 0.02 0.02 0.02 0.02 0.01 0.01 0.01 0.00 0.00 0.00 0.00 0.00 0.00 0.00 0.00 0.00
MSLP
1017.80 1017.61 1017.38 1017.18 1017.07 1017.07 1017.19 1017.39 1017.63 1017.85 1018.01 1018.09 1018.08 1018.03 1017.95 1017.91 1017.92 1018.00 1018.15 1018.34 1018.56 1018.78 1018.99 1019.17 1019.34 1019.50 1019.66 1019.83 1019.99 1020.15 1020.29 1020.40 1020.47 1020.51 1020.52 1020.52 1020.51 1020.51 1020.53 1020.56 1020.62 1020.69 1020.79
1017.80 1017.55 1017.25 1016.97 1016.79 1016.73 1016.80 1016.97 1017.21 1017.46 1017.67 1017.81 1017.87 1017.86 1017.82 1017.77 1017.75 1017.78 1017.86 1018.00 1018.17 1018.37 1018.59 1018.81 1019.04 1019.27 1019.49 1019.71 1019.91 1020.09 1020.24 1020.35 1020.43 1020.49 1020.53 1020.57 1020.61 1020.66 1020.72 1020.79 1020.86 1020.95 1021.06
1017.68 1017.38 1017.03 1016.70 1016.47 1016.36 1016.40 1016.56 1016.81 1017.08 1017.34 1017.55 1017.67 1017.73 1017.72 1017.68 1017.64 1017.62 1017.64 1017.71 1017.83 1018.00 1018.20 1018.45 1018.71 1018.99 1019.27 1019.54 1019.78 1020.00 1020.17 1020.31 1020.42 1020.51 1020.60 1020.69 1020.80 1020.91 1021.03 1021.14 1021.26 1021.37 1021.49
1017.45 1017.12 1016.74 1016.39 1016.14 1016.02 1016.04 1016.19 1016.45 1016.75 1017.06 1017.32 1017.51 1017.62 1017.67 1017.65 1017.60 1017.54 1017.51 1017.51 1017.57 1017.68 1017.86 1018.10 1018.38 1018.70 1019.02 1019.33 1019.62 1019.87 1020.08 1020.26 1020.41 1020.56 1020.71 1020.87 1021.05 1021.23 1021.42 1021.59 1021.75 1021.89 1022.02
1017.14 1016.80 1016.43 1016.09 1015.85 1015.73 1015.76 1015.91 1016.17 1016.49 1016.82 1017.13 1017.38 1017.55 1017.64 1017.65 1017.61 1017.54 1017.46 1017.41 1017.40 1017.46 1017.60 1017.81 1018.08 1018.40 1018.75 1019.10 1019.43 1019.72 1019.98 1020.20 1020.41 1020.62 1020.83 1021.07 1021.32 1021.58 1021.83 1022.06 1022.26 1022.44 1022.59
1016.83 1016.49 1016.15 1015.85 1015.64 1015.55 1015.58 1015.73 1015.99 1016.30 1016.65 1016.98 1017.27 1017.48 1017.62 1017.68 1017.66 1017.59 1017.49 1017.40 1017.33 1017.33 1017.41 1017.58 1017.82 1018.13 1018.48 1018.85 1019.21 1019.54 1019.85 1020.13 1020.40 1020.67 1020.95 1021.25 1021.57 1021.89 1022.20 1022.48 1022.73 1022.93 1023.11
1016.58 1016.27 1015.97 1015.72 1015.55 1015.49 1015.53 1015.67 1015.90 1016.20 1016.53 1016.86 1017.17 1017.42 1017.60 1017.70 1017.72 1017.67 1017.57 1017.45 1017.34 1017.29 1017.31 1017.41 1017.61 1017.89 1018.23 1018.59 1018.97 1019.34 1019.69 1020.03 1020.36 1020.69 1021.03 1021.38 1021.75 1022.12 1022.47 1022.79 1023.08 1023.32 1023.52
1016.45 1016.17 1015.92 1015.72 1015.60 1015.56 1015.60 1015.73 1015.92 1016.17 1016.46 1016.77 1017.08 1017.35 1017.56 1017.71 1017.77 1017.74 1017.66 1017.53 1017.40 1017.30 1017.26 1017.30 1017.44 1017.67 1017.98 1018.34 1018.72 1019.12 1019.52 1019.90 1020.28 1020.66 1021.05 1021.45 1021.85 1022.24 1022.62 1022.97 1023.28 1023.55 1023.78
1016.48 1016.23 1016.03 1015.88 1015.79 1015.77 1015.80 1015.88 1016.02 1016.21 1016.44 1016.71 1016.98 1017.25 1017.49 1017.67 1017.77 1017.79 1017.73 1017.61 1017.46 1017.32 1017.23 1017.21 1017.29 1017.47 1017.74 1018.08 1018.46 1018.88 1019.31 1019.74 1020.17 1020.59 1021.02 1021.44 1021.86 1022.27 1022.66 1023.02 1023.34 1023.64 1023.89
1016.67 1016.45 1016.28 1016.17 1016.10 1016.08 1016.08 1016.12 1016.19 1016.31 1016.46 1016.66 1016.90 1017.15 1017.39 1017.59 1017.73 1017.79 1017.76 1017.65 1017.51 1017.35 1017.21 1017.14 1017.16 1017.29 1017.51 1017.82 1018.20 1018.63 1019.09 1019.55 1020.02 1020.48 1020.94 1021.38 1021.81 1022.22 1022.61 1022.97 1023.31 1023.62 1023.90
1016.97 1016.78 1016.64 1016.55 1016.49 1016.45 1016.42 1016.41 1016.41 1016.44 1016.51 1016.64 1016.82 1017.04 1017.27 1017.48 1017.65 1017.74 1017.74 1017.66 1017.52 1017.36 1017.20 1017.09 1017.06 1017.13 1017.31 1017.59 1017.95 1018.39 1018.86 1019.36 1019.86 1020.36 1020.84 1021.30 1021.74 1022.15 1022.54 1022.90 1023.24 1023.56 1023.86
1017.35 1017.18 1017.05 1016.97 1016.91 1016.85 1016.78 1016.71 1016.64 1016.60 1016.60 1016.65 1016.77 1016.95 1017.16 1017.37 1017.55 1017.67 1017.70 1017.65 1017.53 1017.36 1017.19 1017.06 1016.99 1017.02 1017.15 1017.40 1017.75 1018.17 1018.66 1019.18 1019.72 1020.24 1020.76 1021.24 1021.69 1022.11 1022.50 1022.87 1023.21 1023.53 1023.84
1017.73 1017.58 1017.47 1017.39 1017.31 1017.23 1017.13 1017.01 1016.88 1016.77 1016.71 1016.70 1016.77 1016.90 1017.08 1017.28 1017.47 1017.60 1017.66 1017.64 1017.54 1017.39 1017.22 1017.07 1016.98 1016.97 1017.07 1017.29 1017.61 1018.02 1018.51 1019.05 1019.61 1020.17 1020.71 1021.23 1021.70 1022.14 1022.54 1022.91 1023.25 1023.57 1023.88
1018.08 1017.95 1017.85 1017.76 1017.68 1017.57 1017.44 1017.28 1017.12 1016.96 1016.85 1016.79 1016.81 1016.91 1017.06 1017.24 1017.42 1017.57 1017.65 1017.66 1017.59 1017.46 1017.31 1017.16 1017.05 1017.02 1017.09 1017.27 1017.56 1017.96 1018.44 1018.98 1019.56 1020.15 1020.73 1021.28 1021.79 1022.25 1022.67 1023.04 1023.38 1023.70 1023.99
1018.38 1018.27 1018.17 1018.08 1017.99 1017.86 1017.71 1017.54 1017.35 1017.17 1017.02 1016.94 1016.92 1016.98 1017.10 1017.26 1017.44 1017.58 1017.68 1017.71 1017.67 1017.58 1017.45 1017.31 1017.21 1017.16 1017.21 1017.36 1017.62 1017.99 1018.46 1019.00 1019.59 1020.20 1020.82 1021.40 1021.94 1022.43 1022.87 1023.25 1023.59 1023.89 1024.17
1018.63 1018.54 1018.45 1018.36 1018.25 1018.12 1017.96 1017.77 1017.57 1017.38 1017.22 1017.12 1017.08 1017.12 1017.21 1017.34 1017.50 1017.63 1017.74 1017.79 1017.78 1017.71 1017.61 1017.50 1017.41 1017.37 1017.40 1017.54 1017.77 1018.12 1018.57 1019.10 1019.70 1020.33 1020.96 1021.57 1022.14 1022.66 1023.11 1023.49 1023.82 1024.11 1024.35
1018.86 1018.79 1018.71 1018.61 1018.49 1018.35 1018.18 1017.99 1017.79 1017.60 1017.45 1017.34 1017.28 1017.29 1017.35 1017.45 1017.57 1017.69 1017.78 1017.83 1017.84 1017.81 1017.74 1017.67 1017.60 1017.58 1017.62 1017.76 1017.98 1018.32 1018.76 1019.28 1019.87 1020.50 1021.15 1021.77 1022.35 1022.88 1023.33 1023.71 1024.02 1024.27 1024.48
1019.10 1019.04 1018.96 1018.85 1018.72 1018.57 1018.39 1018.20 1018.01 1017.83 1017.67 1017.55 1017.48 1017.45 1017.47 1017.52 1017.60 1017.67 1017.74 1017.78 1017.80 1017.79 1017.76 1017.73 1017.71 1017.73 1017.80 1017.96 1018.20 1018.54 1018.98 1019.50 1020.09 1020.71 1021.35 1021.97 1022.54 1023.05 1023.49 1023.84 1024.12 1024.33 1024.49
1019.36 1019.31 1019.23 1019.11 1018.96 1018.79 1018.61 1018.41 1018.22 1018.04 1017.87 1017.74 1017.64 1017.57 1017.53 1017.51 1017.52 1017.53 1017.55 1017.57 1017.58 1017.58 1017.59 1017.61 1017.65 1017.73 1017.88 1018.09 1018.38 1018.75 1019.21 1019.74 1020.32 1020.93 1021.55 1022.14 1022.69 1023.16 1023.55 1023.86 1024.09 1024.24 1024.35
1019.65 1019.60 1019.51 1019.38 1019.21 1019.02 1018.82 1018.61 1018.41 1018.22 1018.04 1017.87 1017.73 1017.60 1017.48 1017.38 1017.30 1017.23 1017.18 1017.15 1017.14 1017.15 1017.19 1017.27 1017.39 1017.57 1017.80 1018.10 1018.47 1018.90 1019.40 1019.96 1020.54 1021.14 1021.73 1022.28 1022.77 1023.18 1023.51 1023.75 1023.91 1024.00 1024.04
1019.96 1019.91 1019.80 1019.65 1019.46 1019.25 1019.03 1018.80 1018.58 1018.36 1018.15 1017.94 1017.74 1017.53 1017.33 1017.13 1016.94 1016.77 1016.63 1016.54 1016.49 1016.51 1016.58 1016.73 1016.94 1017.23 1017.58 1017.99 1018.46 1018.99 1019.55 1020.14 1020.74 1021.33 1021.88 1022.37 1022.79 1023.13 1023.37 1023.52 1023.59 1023.61 1023.57
1020.26 1020.20 1020.08 1019.91 1019.70 1019.47 1019.22 1018.97 1018.73 1018.48 1018.23 1017.96 1017.69 1017.40 1017.09 1016.78 1016.48 1016.20 1015.97 1015.81 1015.72 1015.73 1015.84 1016.06 1016.37 1016.77 1017.25 1017.79 1018.38 1019.01 1019.65 1020.28 1020.90 1021.47 1021.98 1022.41 1022.75 1022.99 1023.14 1023.20 1023.18 1023.11 1023.00
1020.53 1020.46 1020.33 1020.14 1019.92 1019.67 1019.41 1019.14 1018.87 1018.58 1018.29 1017.97 1017.62 1017.24 1016.84 1016.42 1016.01 1015.63 1015.31 1015.07 1014.95 1014.96 1015.10 1015.37 1015.78 1016.29 1016.90 1017.56 1018.27 1018.99 1019.70 1020.38 1021.01 1021.56 1022.02 1022.39 1022.65 1022.80 1022.86 1022.83 1022.72 1022.56 1022.38
1020.75 1020.68 1020.54 1020.35 1020.13 1019.87 1019.60 1019.32 1019.02 1018.71 1018.37 1018.00 1017.59 1017.13 1016.64 1016.13 1015.63 1015.16 1014.77 1014.48 1014.33 1014.34 1014.50 1014.83 1015.31 1015.92 1016.62 1017.39 1018.19 1018.98 1019.74 1020.44 1021.07 1021.59 1022.00 1022.31 1022.49 1022.56 1022.54 1022.42 1022.24 1022.01 1021.76
1020.93 1020.86 1020.72 1020.54 1020.33 1020.08 1019.81 1019.52 1019.22 1018.89 1018.52 1018.11 1017.65 1017.13 1016.58 1016.01 1015.44 1014.92 1014.49 1014.17 1014.00 1014.01 1014.20 1014.56 1015.09 1015.76 1016.52 1017.34 1018.18 1019.01 1019.78 1020.48 1021.07 1021.55 1021.92 1022.15 1022.27 1022.28 1022.19 1022.01 1021.77 1021.49 1021.18
1021.07 1021.01 1020.89 1020.73 1020.53 1020.30 1020.05 1019.77 1019.47 1019.13 1018.75 1018.32 1017.83 1017.29 1016.71 1016.11 1015.51 1014.97 1014.52 1014.20 1014.04 1014.05 1014.26 1014.64 1015.19 1015.87 1016.64 1017.46 1018.29 1019.09 1019.83 1020.48 1021.02 1021.45 1021.75 1021.93 1022.00 1021.95 1021.82 1021.61 1021.34 1021.02 1020.68
Thickness
5715 5714 5713 5713 5713 5714 5714 5715 5715 5716 5715 5716 5716 5716 5715 5715 5716 5716 5717 5717 5716 5715 5714 5714 5713 5713 5712 5712 5711 5710 5709 5709 5708 5707 5707 5705 5704 5704 5703 5702 5700 5699 5698
5708 5708 5708 5708 5708 5709 5710 5711 5711 5711 5711 5711 5711 5711 5711 5712 5712 5712 5712 5712 5711 5711 5711 5710 5710 5710 5710 5709 5709 5708 5707 5707 5706 5706 5704 5703 5702 5701 5700 5699 5698 5697 5695
5704 5703 5702 5702 5702 5703 5704 5705 5706 5706 5706 5706 5706 5706 5706 5707 5707 5707 5707 5707 5706 5706 5706 5706 5706 5706 5706 5706 5706 5705 5704 5704 5703 5703 5702 5701 5700 5699 5697 5696 5695 5694 5692
5698 5697 5697 5697 5697 5698 5698 5699 5700 5700 5700 5700 5700 5701 5701 5701 5701 5701 5701 5701 5701 5701 5701 5701 5701 5702 5702 5702 5702 5702 5701 5701 5700 5699 5698 5698 5697 5696 5695 5693 5692 5690 5689
5692 5692 5691 5691 5692 5692 5692 5694 5694 5694 5693 5693 5694 5694 5694 5694 5695 5696 5696 5696 5695 5696 5696 5696 5696 5696 5697 5697 5697 5697 5697 5696 5696 5695 5695 5694 5693 5692 5691 5690 5688 5687 5685
5686 5685 5685 5685 5685 5686 5686 5687 5688 5688 5688 5688 5688 5687 5686 5687 5688 5689 5689 5689 5689 5690 5689 5689 5689 5690 5690 5691 5691 5692 5692 5692 5691 5691 5690 5690 5689 5689 5688 5686 5684 5683 5682
5679 5679 5679 5678 5678 5678 5679 5681 5681 5681 5681 5682 5680 5678 5678 5680 5680 5681 5681 5682 5682 5682 5682 5682 5682 5682 5683 5684 5685 5685 5686 5686 5686 5687 5686 5685 5685 5684 5683 5682 5680 5679 5678
5672 5672 5672 5671 5671 5671 5672 5673 5675 5674 5674 5675 5673 5670 5668 5668 5671 5672 5672 5673 5673 5673 5674 5674 5674 5675 5675 5676 5677 5678 5678 5679 5680 5681 5680 5680 5679 5679 5678 5677 5676 5674 5673
5665 5665 5665 5664 5663 5664 5664 5665 5667 5666 5665 5667 5669 5666 5662 5660 5660 5661 5662 5663 5663 5664 5665 5665 5666 5666 5667 5667 5668 5669 5670 5671 5672 5673 5674 5674 5674 5673 5672 5671 5670 5669 5668
5657 5658 5658 5657 5657 5656 5656 5657 5659 5659 5659 5658 5661 5662 5662 5660 5655 5652 5652 5653 5654 5654 5655 5656 5657 5657 5658 5659 5659 5660 5661 5662 5663 5665 5666 5667 5668 5667 5666 5665 5663 5662 5661
5650 5650 5649 5649 5649 5648 5649 5649 5651 5651 5652 5651 5652 5653 5654 5653 5652 5649 5644 5643 5644 5645 5646 5647 5648 5648 5649 5650 5651 5651 5652 5653 5654 5655 5657 5658 5659 5659 5658 5657 5656 5655 5654
5641 5641 5641 5641 5641 5641 5642 5642 5643 5644 5644 5645 5645 5646 5645 5644 5644 5642 5639 5637 5635 5635 5637 5638 5639 5640 5641 5641 5642 5642 5643 5644 5645 5646 5647 5649 5650 5651 5651 5650 5649 5649 5648
5631 5632 5633 5633 5633 5634 5635 5635 5635 5636 5636 5637 5637 5638 5638 5638 5638 5637 5634 5631 5629 5627 5628 5629 5630 5632 5632 5632 5633 5633 5634 5634 5635 5636 5637 5638 5639 5641 5641 5641 5641 5641 5640
5623 5624 5625 5625 5625 5626 5627 5628 5628 5628 5629 5629 5630 5630 5630 5631 5631 5631 5629 5626 5622 5620 5620 5621 5622 5623 5624 5624 5624 5624 5624 5625 5626 5627 5628 5628 5629 5629 5630 5630 5631 5631 5631
5617 5617 5617 5617 5617 5618 5619 5619 5619 5619 5620 5621 5621 5622 5622 5623 5624 5624 5624 5622 5619 5615 5613 5613 5614 5615 5616 5615 5615 5616 5616 5616 5617 5618 5618 5618 5619 5619 5619 5619 5620 5620 5620
5609 5609 5609 5608 5609 5609 5610 5610 5610 5611 5612 5612 5613 5613 5613 5614 5616 5616 5616 5616 5615 5613 5608 5607 5607 5608 5608 5608 5607 5608 5608 5608 5609 5609 5610 5610 5610 5610 5610 5610 5610 5610 5609
5602 5601 5600 5601 5600 5600 5601 5601 5601 5602 5603 5603 5604 5604 5605 5606 5607 5608 5608 5608 5608 5607 5603 5600 5600 5601 5601 5600 5600 5600 5600 5600 5600 5601 5601 5601 5601 5601 5601 5601 5601 5600 5600
5593 5593 5593 5592 5592 5592 5592 5592 5593 5593 5594 5594 5594 5595 5596 5598 5598 5599 5600 5600 5600 5600 5598 5595 5593 5593 5593 5593 5593 5593 5593 5593 5593 5593 5593 5593 5593 5593 5592 5592 5592 5592 5591
5585 5585 5585 5584 5584 5584 5584 5584 5585 5585 5585 5586 5586 5587 5587 5589 5589 5590 5591 5592 5593 5594 5592 5590 5587 5587 5587 5587 5586 5586 5587 5587 5587 5587 5587 5586 5586 5585 5585 5584 5584 5584 5584
5577 5577 5576 5576 5576 5576 5576 5577 5576 5576 5577 5577 5578 5579 5580 5581 5581 5582 5584 5585 5586 5586 5585 5584 5582 5581 5580 5580 5580 5579 5579 5580 5581 5581 5581 5581 5580 5580 5579 5579 5579 5579 5579
5570 5569 5569 5568 5568 5568 5568 5568 5569 5569 5569 5570 5571 5572 5573 5574 5575 5576 5578 5578 5579 5579 5578 5576 5575 5574 5574 5574 5574 5574 5573 5573 5574 5576 5575 5576 5576 5575 5575 5575 5576 5575 5575
5562 5561 5561 5560 5560 5561 5561 5562 5563 5562 5562 5562 5563 5565 5566 5567 5569 5570 5571 5572 5573 5573 5572 5571 5570 5569 5569 5570 5569 5570 5568 5568 5568 5571 5570 5571 5572 5571 5572 5573 5573 5573 5572
5554 5554 5554 5553 5553 5554 5556 5557 5557 5557 5556 5556 5557 5558 5560 5561 5562 5564 5565 5566 5567 5568 5568 5567 5566 5566 5566 5567 5566 5566 5565 5564 5565 5568 5567 5567 5568 5568 5571 5571 5572 5571 5571
5548 5548 5548 5548 5548 5549 5551 5552 5552 5552 5551 5551 5552 5553 5554 5555 5557 5558 5559 5560 5561 5562 5564 5564 5564 5564 5565 5565 5565 5564 5564 5563 5564 5566 5566 5564 5565 5566 5570 5571 5571 5570 5570
5544 5544 5544 5544 5544 5544 5546 5548 5548 5547 5546 5547 5548 5549 5550 5551 5553 5554 5555 5555 5556 5558 5560 5561 5561 5562 5563 5563 5563 5562 5561 5560 5560 5562 5564 5563 5564 5565 5567 5569 5571 5570 5569
5542 5542 5541 5541 5541 5541 5543 5545 5546 5544 5543 5543 5544 5546 5547 5548 5550 5551 5551 5551 5552 5553 5555 5557 5558 5559 5560 5561 5562 5562 5561 5559 5558 5559 5563 5562 5562 5563 5564 5567 5569 5570 5569